Year,Month,Day,Hour,Minute,Value (Times are PST for temperature in C)
2011,02,22,00,00,1.40
2011,02,22,00,01,1.40
2011,02,22,00,02,1.40
2011,02,22,00,03,1.40
2011,02,22,00,04,1.40
2011,02,22,00,05,1.50
2011,02,22,00,06,1.50
2011,02,22,00,07,1.50
2011,02,22,00,08,1.50
2011,02,22,00,09,1.50
2011,02,22,00,10,1.50
2011,02,22,00,11,1.50
2011,02,22,00,12,1.50
2011,02,22,00,13,1.50
2011,02,22,00,14,1.50
2011,02,22,00,15,1.50
2011,02,22,00,16,1.40
2011,02,22,00,17,1.40
2011,02,22,00,18,1.40
2011,02,22,00,19,1.40
2011,02,22,00,20,1.40
2011,02,22,00,21,1.40
2011,02,22,00,22,1.40
2011,02,22,00,23,1.40
2011,02,22,00,24,1.40
2011,02,22,00,25,1.40
2011,02,22,00,26,1.40
2011,02,22,00,27,1.40
2011,02,22,00,28,1.40
2011,02,22,00,29,1.40
2011,02,22,00,30,1.40
2011,02,22,00,31,1.40
2011,02,22,00,32,1.40
2011,02,22,00,33,1.40
2011,02,22,00,34,1.40
2011,02,22,00,35,1.40
2011,02,22,00,36,1.40
2011,02,22,00,37,1.40
2011,02,22,00,38,1.40
2011,02,22,00,39,1.40
2011,02,22,00,40,1.50
2011,02,22,00,41,1.50
2011,02,22,00,42,1.50
2011,02,22,00,43,1.50
2011,02,22,00,44,1.50
2011,02,22,00,45,1.50
2011,02,22,00,46,1.50
2011,02,22,00,47,1.60
2011,02,22,00,48,1.60
2011,02,22,00,49,1.60
2011,02,22,00,50,1.60
2011,02,22,00,51,1.60
2011,02,22,00,52,1.60
2011,02,22,00,53,1.60
2011,02,22,00,54,1.60
2011,02,22,00,55,1.60
2011,02,22,00,56,1.60
2011,02,22,00,57,1.60
2011,02,22,00,58,1.60
2011,02,22,00,59,1.60
2011,02,22,01,00,1.60
2011,02,22,01,01,1.60
2011,02,22,01,02,1.60
2011,02,22,01,03,1.60
2011,02,22,01,04,1.50
2011,02,22,01,05,1.50
2011,02,22,01,06,1.50
2011,02,22,01,07,1.50
2011,02,22,01,08,1.50
2011,02,22,01,09,1.50
2011,02,22,01,10,1.40
2011,02,22,01,11,1.40
2011,02,22,01,12,1.40
2011,02,22,01,13,1.40
2011,02,22,01,14,1.40
2011,02,22,01,15,1.40
2011,02,22,01,16,1.40
2011,02,22,01,17,1.40
2011,02,22,01,18,1.40
2011,02,22,01,19,1.40
2011,02,22,01,20,1.40
2011,02,22,01,21,1.40
2011,02,22,01,22,1.40
2011,02,22,01,23,1.40
2011,02,22,01,24,1.40
2011,02,22,01,25,1.40
2011,02,22,01,26,1.40
2011,02,22,01,27,1.40
2011,02,22,01,28,1.40
2011,02,22,01,29,1.40
2011,02,22,01,30,1.40
2011,02,22,01,31,1.40
2011,02,22,01,32,1.40
2011,02,22,01,33,1.30
2011,02,22,01,34,1.30
2011,02,22,01,35,1.30
2011,02,22,01,36,1.30
2011,02,22,01,37,1.30
2011,02,22,01,38,1.30
2011,02,22,01,39,1.30
2011,02,22,01,40,1.30
2011,02,22,01,41,1.30
2011,02,22,01,42,1.30
2011,02,22,01,43,1.30
2011,02,22,01,44,1.30
2011,02,22,01,45,1.30
2011,02,22,01,46,1.30
2011,02,22,01,47,1.30
2011,02,22,01,48,1.30
2011,02,22,01,49,1.30
2011,02,22,01,50,1.30
2011,02,22,01,51,1.30
2011,02,22,01,52,1.30
2011,02,22,01,53,1.30
2011,02,22,01,54,1.30
2011,02,22,01,55,1.30
2011,02,22,01,56,1.30
2011,02,22,01,57,1.30
2011,02,22,01,58,1.30
2011,02,22,01,59,1.30
2011,02,22,02,00,1.30
2011,02,22,02,01,1.30
2011,02,22,02,02,1.30
2011,02,22,02,03,1.30
2011,02,22,02,04,1.30
2011,02,22,02,05,1.30
2011,02,22,02,06,1.30
2011,02,22,02,07,1.30
2011,02,22,02,08,1.30
2011,02,22,02,09,1.30
2011,02,22,02,10,1.30
2011,02,22,02,11,1.30
2011,02,22,02,12,1.30
2011,02,22,02,13,1.30
2011,02,22,02,14,1.30
2011,02,22,02,15,1.30
2011,02,22,02,16,1.30
2011,02,22,02,17,1.30
2011,02,22,02,18,1.30
2011,02,22,02,19,1.30
2011,02,22,02,20,1.30
2011,02,22,02,21,1.30
2011,02,22,02,22,1.30
2011,02,22,02,23,1.30
2011,02,22,02,24,1.30
2011,02,22,02,25,1.30
2011,02,22,02,26,1.30
2011,02,22,02,27,1.30
2011,02,22,02,28,1.30
2011,02,22,02,29,1.30
2011,02,22,02,30,1.30
2011,02,22,02,31,1.30
2011,02,22,02,32,1.30
2011,02,22,02,33,1.30
2011,02,22,02,34,1.30
2011,02,22,02,35,1.30
2011,02,22,02,36,1.30
2011,02,22,02,37,1.30
2011,02,22,02,38,1.30
2011,02,22,02,39,1.30
2011,02,22,02,40,1.30
2011,02,22,02,41,1.30
2011,02,22,02,42,1.30
2011,02,22,02,43,1.30
2011,02,22,02,44,1.30
2011,02,22,02,45,1.30
2011,02,22,02,46,1.30
2011,02,22,02,47,1.30
2011,02,22,02,48,1.30
2011,02,22,02,49,1.20
2011,02,22,02,50,1.20
2011,02,22,02,51,1.20
2011,02,22,02,52,1.20
2011,02,22,02,53,1.20
2011,02,22,02,54,1.20
2011,02,22,02,55,1.20
2011,02,22,02,56,1.20
2011,02,22,02,57,1.20
2011,02,22,02,58,1.20
2011,02,22,02,59,1.20
2011,02,22,03,00,1.10
2011,02,22,03,01,1.10
2011,02,22,03,02,1.10
2011,02,22,03,03,1.10
2011,02,22,03,04,1.10
2011,02,22,03,05,1.10
2011,02,22,03,06,1.00
2011,02,22,03,07,1.00
2011,02,22,03,08,1.00
2011,02,22,03,09,0.90
2011,02,22,03,10,0.90
2011,02,22,03,11,0.90
2011,02,22,03,12,0.90
2011,02,22,03,13,0.90
2011,02,22,03,14,0.90
2011,02,22,03,15,0.90
2011,02,22,03,16,0.80
2011,02,22,03,17,0.80
2011,02,22,03,18,0.80
2011,02,22,03,19,0.80
2011,02,22,03,20,0.80
2011,02,22,03,21,0.80
2011,02,22,03,22,0.80
2011,02,22,03,23,0.80
2011,02,22,03,24,0.80
2011,02,22,03,25,0.80
2011,02,22,03,26,0.80
2011,02,22,03,27,0.80
2011,02,22,03,28,0.80
2011,02,22,03,29,0.80
2011,02,22,03,30,0.80
2011,02,22,03,31,0.80
2011,02,22,03,32,0.80
2011,02,22,03,33,0.80
2011,02,22,03,34,0.80
2011,02,22,03,35,0.80
2011,02,22,03,36,0.80
2011,02,22,03,37,0.80
2011,02,22,03,38,0.80
2011,02,22,03,39,0.90
2011,02,22,03,40,0.90
2011,02,22,03,41,0.90
2011,02,22,03,42,0.90
2011,02,22,03,43,0.90
2011,02,22,03,44,0.90
2011,02,22,03,45,0.90
2011,02,22,03,46,0.90
2011,02,22,03,47,0.90
2011,02,22,03,48,1.00
2011,02,22,03,49,1.00
2011,02,22,03,50,1.00
2011,02,22,03,51,1.00
2011,02,22,03,52,1.00
2011,02,22,03,53,1.10
2011,02,22,03,54,1.10
2011,02,22,03,55,1.10
2011,02,22,03,56,1.10
2011,02,22,03,57,1.10
2011,02,22,03,58,1.10
2011,02,22,03,59,1.10
2011,02,22,04,00,1.10
2011,02,22,04,01,1.10
2011,02,22,04,02,1.10
2011,02,22,04,03,1.10
2011,02,22,04,04,1.10
2011,02,22,04,05,1.20
2011,02,22,04,06,1.20
2011,02,22,04,07,1.20
2011,02,22,04,08,1.20
2011,02,22,04,09,1.20
2011,02,22,04,10,1.20
2011,02,22,04,11,1.20
2011,02,22,04,12,1.20
2011,02,22,04,13,1.30
2011,02,22,04,14,1.30
2011,02,22,04,15,1.30
2011,02,22,04,16,1.30
2011,02,22,04,17,1.30
2011,02,22,04,18,1.30
2011,02,22,04,19,1.30
2011,02,22,04,20,1.30
2011,02,22,04,21,1.30
2011,02,22,04,22,1.30
2011,02,22,04,23,1.30
2011,02,22,04,24,1.30
2011,02,22,04,25,1.30
2011,02,22,04,26,1.30
2011,02,22,04,27,1.30
2011,02,22,04,28,1.30
2011,02,22,04,29,1.30
2011,02,22,04,30,1.30
2011,02,22,04,31,1.30
2011,02,22,04,32,1.30
2011,02,22,04,33,1.30
2011,02,22,04,34,1.30
2011,02,22,04,35,1.30
2011,02,22,04,36,1.30
2011,02,22,04,37,1.30
2011,02,22,04,38,1.30
2011,02,22,04,39,1.40
2011,02,22,04,40,1.40
2011,02,22,04,41,1.40
2011,02,22,04,42,1.40
2011,02,22,04,43,1.40
2011,02,22,04,44,1.40
2011,02,22,04,45,1.40
2011,02,22,04,46,1.40
2011,02,22,04,47,1.40
2011,02,22,04,48,1.40
2011,02,22,04,49,1.40
2011,02,22,04,50,1.40
2011,02,22,04,51,1.40
2011,02,22,04,52,1.40
2011,02,22,04,53,1.40
2011,02,22,04,54,1.40
2011,02,22,04,55,1.40
2011,02,22,04,56,1.40
2011,02,22,04,57,1.40
2011,02,22,04,58,1.40
2011,02,22,04,59,1.40
2011,02,22,05,00,1.40
2011,02,22,05,01,1.40
2011,02,22,05,02,1.40
2011,02,22,05,03,1.40
2011,02,22,05,04,1.30
2011,02,22,05,05,1.30
2011,02,22,05,06,1.30
2011,02,22,05,07,1.30
2011,02,22,05,08,1.30
2011,02,22,05,09,1.30
2011,02,22,05,10,1.30
2011,02,22,05,11,1.30
2011,02,22,05,12,1.40
2011,02,22,05,13,1.40
2011,02,22,05,14,1.40
2011,02,22,05,15,1.40
2011,02,22,05,16,1.40
2011,02,22,05,17,1.40
2011,02,22,05,18,1.50
2011,02,22,05,19,1.50
2011,02,22,05,20,1.50
2011,02,22,05,21,1.50
2011,02,22,05,22,1.60
2011,02,22,05,23,1.60
2011,02,22,05,24,1.70
2011,02,22,05,25,1.70
2011,02,22,05,26,1.70
2011,02,22,05,27,1.70
2011,02,22,05,28,1.70
2011,02,22,05,29,1.70
2011,02,22,05,30,1.80
2011,02,22,05,31,1.80
2011,02,22,05,32,1.80
2011,02,22,05,33,1.80
2011,02,22,05,34,1.80
2011,02,22,05,35,1.80
2011,02,22,05,36,1.80
2011,02,22,05,37,1.90
2011,02,22,05,38,1.90
2011,02,22,05,39,1.90
2011,02,22,05,40,1.90
2011,02,22,05,41,1.90
2011,02,22,05,42,1.90
2011,02,22,05,43,1.90
2011,02,22,05,44,1.90
2011,02,22,05,45,1.90
2011,02,22,05,46,1.90
2011,02,22,05,47,1.90
2011,02,22,05,48,1.90
2011,02,22,05,49,1.90
2011,02,22,05,50,1.90
2011,02,22,05,51,1.90
2011,02,22,05,52,2.00
2011,02,22,05,53,2.00
2011,02,22,05,54,2.00
2011,02,22,05,55,2.00
2011,02,22,05,56,2.00
2011,02,22,05,57,2.10
2011,02,22,05,58,2.10
2011,02,22,05,59,2.10
2011,02,22,06,00,2.10
2011,02,22,06,01,2.10
2011,02,22,06,02,2.10
2011,02,22,06,03,2.10
2011,02,22,06,04,2.20
2011,02,22,06,05,2.20
2011,02,22,06,06,2.20
2011,02,22,06,07,2.20
2011,02,22,06,08,2.20
2011,02,22,06,09,2.20
2011,02,22,06,10,2.20
2011,02,22,06,11,2.30
2011,02,22,06,12,2.30
2011,02,22,06,13,2.30
2011,02,22,06,14,2.30
2011,02,22,06,15,2.30
2011,02,22,06,16,2.30
2011,02,22,06,17,2.30
2011,02,22,06,18,2.30
2011,02,22,06,19,2.30
2011,02,22,06,20,2.30
2011,02,22,06,21,2.40
2011,02,22,06,22,2.40
2011,02,22,06,23,2.40
2011,02,22,06,24,2.40
2011,02,22,06,25,2.40
2011,02,22,06,26,2.40
2011,02,22,06,27,2.40
2011,02,22,06,28,2.40
2011,02,22,06,29,2.40
2011,02,22,06,30,2.40
2011,02,22,06,31,2.40
2011,02,22,06,32,2.40
2011,02,22,06,33,2.40
2011,02,22,06,34,2.40
2011,02,22,06,35,2.40
2011,02,22,06,36,2.40
2011,02,22,06,37,2.40
2011,02,22,06,38,2.40
2011,02,22,06,39,2.40
2011,02,22,06,40,2.40
2011,02,22,06,41,2.40
2011,02,22,06,42,2.40
2011,02,22,06,43,2.40
2011,02,22,06,44,2.40
2011,02,22,06,45,2.40
2011,02,22,06,46,2.40
2011,02,22,06,47,2.40
2011,02,22,06,48,2.40
2011,02,22,06,49,2.40
2011,02,22,06,50,2.40
2011,02,22,06,51,2.40
2011,02,22,06,52,2.40
2011,02,22,06,53,2.40
2011,02,22,06,54,2.40
2011,02,22,06,55,2.40
2011,02,22,06,56,2.40
2011,02,22,06,57,2.40
2011,02,22,06,58,2.40
2011,02,22,06,59,2.40
2011,02,22,07,00,2.40
2011,02,22,07,01,2.40
2011,02,22,07,02,2.40
2011,02,22,07,03,2.40
2011,02,22,07,04,2.40
2011,02,22,07,05,2.40
2011,02,22,07,06,2.40
2011,02,22,07,07,2.40
2011,02,22,07,08,2.30
2011,02,22,07,09,2.30
2011,02,22,07,10,2.30
2011,02,22,07,11,2.30
2011,02,22,07,12,2.30
2011,02,22,07,13,2.30
2011,02,22,07,14,2.30
2011,02,22,07,15,2.30
2011,02,22,07,16,2.30
2011,02,22,07,17,2.30
2011,02,22,07,18,2.20
2011,02,22,07,19,2.30
2011,02,22,07,20,2.20
2011,02,22,07,21,2.20
2011,02,22,07,22,2.20
2011,02,22,07,23,2.20
2011,02,22,07,24,2.20
2011,02,22,07,25,2.20
2011,02,22,07,26,2.20
2011,02,22,07,27,2.20
2011,02,22,07,28,2.20
2011,02,22,07,29,2.10
2011,02,22,07,30,2.10
2011,02,22,07,31,2.10
2011,02,22,07,32,2.10
2011,02,22,07,33,2.10
2011,02,22,07,34,2.20
2011,02,22,07,35,2.20
2011,02,22,07,36,2.20
2011,02,22,07,37,2.20
2011,02,22,07,38,2.20
2011,02,22,07,39,2.20
2011,02,22,07,40,2.20
2011,02,22,07,41,2.20
2011,02,22,07,42,2.20
2011,02,22,07,43,2.30
2011,02,22,07,44,2.30
2011,02,22,07,45,2.30
2011,02,22,07,46,2.30
2011,02,22,07,47,2.30
2011,02,22,07,48,2.40
2011,02,22,07,49,2.40
2011,02,22,07,50,2.40
2011,02,22,07,51,2.40
2011,02,22,07,52,2.40
2011,02,22,07,53,2.40
2011,02,22,07,54,2.40
2011,02,22,07,55,2.40
2011,02,22,07,56,2.40
2011,02,22,07,57,2.40
2011,02,22,07,58,2.40
2011,02,22,07,59,2.40
2011,02,22,08,00,2.40
2011,02,22,08,01,2.40
2011,02,22,08,02,2.40
2011,02,22,08,03,2.40
2011,02,22,08,04,2.50
2011,02,22,08,05,2.50
2011,02,22,08,06,2.50
2011,02,22,08,07,2.50
2011,02,22,08,08,2.50
2011,02,22,08,09,2.50
2011,02,22,08,10,2.50
2011,02,22,08,11,2.60
2011,02,22,08,12,2.60
2011,02,22,08,13,2.60
2011,02,22,08,14,2.60
2011,02,22,08,15,2.60
2011,02,22,08,16,2.60
2011,02,22,08,17,2.60
2011,02,22,08,18,2.60
2011,02,22,08,19,2.60
2011,02,22,08,20,2.60
2011,02,22,08,21,2.60
2011,02,22,08,22,2.60
2011,02,22,08,23,2.60
2011,02,22,08,24,2.60
2011,02,22,08,25,2.60
2011,02,22,08,26,2.60
2011,02,22,08,27,2.60
2011,02,22,08,28,2.60
2011,02,22,08,29,2.60
2011,02,22,08,30,2.60
2011,02,22,08,31,2.60
2011,02,22,08,32,2.60
2011,02,22,08,33,2.60
2011,02,22,08,34,2.60
2011,02,22,08,35,2.60
2011,02,22,08,36,2.70
2011,02,22,08,37,2.70
2011,02,22,08,38,2.70
2011,02,22,08,39,2.70
2011,02,22,08,40,2.70
2011,02,22,08,41,2.70
2011,02,22,08,42,2.70
2011,02,22,08,43,2.70
2011,02,22,08,44,2.70
2011,02,22,08,45,2.70
2011,02,22,08,46,2.80
2011,02,22,08,47,2.80
2011,02,22,08,48,2.80
2011,02,22,08,49,2.80
2011,02,22,08,50,2.80
2011,02,22,08,51,2.80
2011,02,22,08,52,2.90
2011,02,22,08,53,2.90
2011,02,22,08,54,2.90
2011,02,22,08,55,2.90
2011,02,22,08,56,2.90
2011,02,22,08,57,2.90
2011,02,22,08,58,3.00
2011,02,22,08,59,3.00
2011,02,22,09,00,3.00
2011,02,22,09,01,3.00
2011,02,22,09,02,3.00
2011,02,22,09,03,3.00
2011,02,22,09,04,3.10
2011,02,22,09,05,3.10
2011,02,22,09,06,3.10
2011,02,22,09,07,3.10
2011,02,22,09,08,3.10
2011,02,22,09,09,3.10
2011,02,22,09,10,3.10
2011,02,22,09,11,3.10
2011,02,22,09,12,3.10
2011,02,22,09,13,3.10
2011,02,22,09,14,3.10
2011,02,22,09,15,3.10
2011,02,22,09,16,3.10
2011,02,22,09,17,3.10
2011,02,22,09,18,3.10
2011,02,22,09,19,3.10
2011,02,22,09,20,3.10
2011,02,22,09,21,3.10
2011,02,22,09,22,3.10
2011,02,22,09,23,3.10
2011,02,22,09,24,3.20
2011,02,22,09,25,3.20
2011,02,22,09,26,3.20
2011,02,22,09,27,3.20
2011,02,22,09,28,3.20
2011,02,22,09,29,3.20
2011,02,22,09,30,3.30
2011,02,22,09,31,3.30
2011,02,22,09,32,3.30
2011,02,22,09,33,3.30
2011,02,22,09,34,3.30
2011,02,22,09,35,3.30
2011,02,22,09,36,3.30
2011,02,22,09,37,3.40
2011,02,22,09,38,3.40
2011,02,22,09,39,3.40
2011,02,22,09,40,3.50
2011,02,22,09,41,3.50
2011,02,22,09,42,3.60
2011,02,22,09,43,3.70
2011,02,22,09,44,3.70
2011,02,22,09,45,3.80
2011,02,22,09,46,3.80
2011,02,22,09,47,3.80
2011,02,22,09,48,3.90
2011,02,22,09,49,3.90
2011,02,22,09,50,3.90
2011,02,22,09,51,3.90
2011,02,22,09,52,3.90
2011,02,22,09,53,3.90
2011,02,22,09,54,3.90
2011,02,22,09,55,3.90
2011,02,22,09,56,3.90
2011,02,22,09,57,3.90
2011,02,22,09,58,3.90
2011,02,22,09,59,3.90
2011,02,22,10,00,3.90
2011,02,22,10,01,3.80
2011,02,22,10,02,3.90
2011,02,22,10,03,3.90
2011,02,22,10,04,3.90
2011,02,22,10,05,4.00
2011,02,22,10,06,4.10
2011,02,22,10,07,4.20
2011,02,22,10,08,4.20
2011,02,22,10,09,4.30
2011,02,22,10,10,4.30
2011,02,22,10,11,4.30
2011,02,22,10,12,4.30
2011,02,22,10,13,4.30
2011,02,22,10,14,4.30
2011,02,22,10,15,4.30
2011,02,22,10,16,4.30
2011,02,22,10,17,4.30
2011,02,22,10,18,4.30
2011,02,22,10,19,4.40
2011,02,22,10,20,4.40
2011,02,22,10,21,4.40
2011,02,22,10,22,4.50
2011,02,22,10,23,4.50
2011,02,22,10,24,4.50
2011,02,22,10,25,4.50
2011,02,22,10,26,4.50
2011,02,22,10,27,4.50
2011,02,22,10,28,4.60
2011,02,22,10,29,4.60
2011,02,22,10,30,4.60
2011,02,22,10,31,4.60
2011,02,22,10,32,4.50
2011,02,22,10,33,4.50
2011,02,22,10,34,4.50
2011,02,22,10,35,4.50
2011,02,22,10,36,4.40
2011,02,22,10,37,4.40
2011,02,22,10,38,4.30
2011,02,22,10,39,4.30
2011,02,22,10,40,4.30
2011,02,22,10,41,4.20
2011,02,22,10,42,4.20
2011,02,22,10,43,4.20
2011,02,22,10,44,4.20
2011,02,22,10,45,4.20
2011,02,22,10,46,4.20
2011,02,22,10,47,4.30
2011,02,22,10,48,4.30
2011,02,22,10,49,4.30
2011,02,22,10,50,4.30
2011,02,22,10,51,4.40
2011,02,22,10,52,4.40
2011,02,22,10,53,4.40
2011,02,22,10,54,4.40
2011,02,22,10,55,4.50
2011,02,22,10,56,4.50
2011,02,22,10,57,4.50
2011,02,22,10,58,4.60
2011,02,22,10,59,4.60
2011,02,22,11,00,4.70
2011,02,22,11,01,4.70
2011,02,22,11,02,4.80
2011,02,22,11,03,4.80
2011,02,22,11,04,4.90
2011,02,22,11,05,4.90
2011,02,22,11,06,4.90
2011,02,22,11,07,4.90
2011,02,22,11,08,4.90
2011,02,22,11,09,4.90
2011,02,22,11,10,4.90
2011,02,22,11,11,5.00
2011,02,22,11,12,4.90
2011,02,22,11,13,4.90
2011,02,22,11,14,4.90
2011,02,22,11,15,4.90
2011,02,22,11,16,4.80
2011,02,22,11,17,4.80
2011,02,22,11,18,4.70
2011,02,22,11,19,4.70
2011,02,22,11,20,4.70
2011,02,22,11,21,4.80
2011,02,22,11,22,4.80
2011,02,22,11,23,4.80
2011,02,22,11,24,4.80
2011,02,22,11,25,4.80
2011,02,22,11,26,4.80
2011,02,22,11,27,4.80
2011,02,22,11,28,4.70
2011,02,22,11,29,4.70
2011,02,22,11,30,4.80
2011,02,22,11,31,4.80
2011,02,22,11,32,4.80
2011,02,22,11,33,4.90
2011,02,22,11,34,4.90
2011,02,22,11,35,4.90
2011,02,22,11,36,4.90
2011,02,22,11,37,4.90
2011,02,22,11,38,5.00
2011,02,22,11,39,5.00
2011,02,22,11,40,5.00
2011,02,22,11,41,5.10
2011,02,22,11,42,5.10
2011,02,22,11,43,5.10
2011,02,22,11,44,5.10
2011,02,22,11,45,5.10
2011,02,22,11,46,5.10
2011,02,22,11,47,5.10
2011,02,22,11,48,5.00
2011,02,22,11,49,5.00
2011,02,22,11,50,5.00
2011,02,22,11,51,5.00
2011,02,22,11,52,4.90
2011,02,22,11,53,4.90
2011,02,22,11,54,4.90
2011,02,22,11,55,5.00
2011,02,22,11,56,5.00
2011,02,22,11,57,5.10
2011,02,22,11,58,5.10
2011,02,22,11,59,5.20
2011,02,22,12,00,5.20
2011,02,22,12,01,5.30
2011,02,22,12,02,5.30
2011,02,22,12,03,5.30
2011,02,22,12,04,5.40
2011,02,22,12,05,5.40
2011,02,22,12,06,5.30
2011,02,22,12,07,5.30
2011,02,22,12,08,5.30
2011,02,22,12,09,5.30
2011,02,22,12,10,5.40
2011,02,22,12,11,5.40
2011,02,22,12,12,5.40
2011,02,22,12,13,5.40
2011,02,22,12,14,5.40
2011,02,22,12,15,5.40
2011,02,22,12,16,5.50
2011,02,22,12,17,5.50
2011,02,22,12,18,5.50
2011,02,22,12,19,5.50
2011,02,22,12,20,5.60
2011,02,22,12,21,5.60
2011,02,22,12,22,5.60
2011,02,22,12,23,5.70
2011,02,22,12,24,5.60
2011,02,22,12,25,5.60
2011,02,22,12,26,5.60
2011,02,22,12,27,5.60
2011,02,22,12,28,5.70
2011,02,22,12,29,5.70
2011,02,22,12,30,5.70
2011,02,22,12,31,5.80
2011,02,22,12,32,5.80
2011,02,22,12,33,5.70
2011,02,22,12,34,5.70
2011,02,22,12,35,5.70
2011,02,22,12,36,5.80
2011,02,22,12,37,5.80
2011,02,22,12,38,5.80
2011,02,22,12,39,5.90
2011,02,22,12,40,5.90
2011,02,22,12,41,6.00
2011,02,22,12,42,6.10
2011,02,22,12,43,6.10
2011,02,22,12,44,6.10
2011,02,22,12,45,6.00
2011,02,22,12,46,6.00
2011,02,22,12,47,6.00
2011,02,22,12,48,6.00
2011,02,22,12,49,6.00
2011,02,22,12,50,6.00
2011,02,22,12,51,6.00
2011,02,22,12,52,5.90
2011,02,22,12,53,5.90
2011,02,22,12,54,5.90
2011,02,22,12,55,5.90
2011,02,22,12,56,5.80
2011,02,22,12,57,5.80
2011,02,22,12,58,5.90
2011,02,22,12,59,5.90
2011,02,22,13,00,5.90
2011,02,22,13,01,6.00
2011,02,22,13,02,6.00
2011,02,22,13,03,5.90
2011,02,22,13,04,5.90
2011,02,22,13,05,5.90
2011,02,22,13,06,5.90
2011,02,22,13,07,5.90
2011,02,22,13,08,5.90
2011,02,22,13,09,5.90
2011,02,22,13,10,6.00
2011,02,22,13,11,6.00
2011,02,22,13,12,6.00
2011,02,22,13,13,6.10
2011,02,22,13,14,6.10
2011,02,22,13,15,6.00
2011,02,22,13,16,6.00
2011,02,22,13,17,6.00
2011,02,22,13,18,6.00
2011,02,22,13,19,6.00
2011,02,22,13,20,6.00
2011,02,22,13,21,6.00
2011,02,22,13,22,6.00
2011,02,22,13,23,6.10
2011,02,22,13,24,6.10
2011,02,22,13,25,6.10
2011,02,22,13,26,6.10
2011,02,22,13,27,6.00
2011,02,22,13,28,6.00
2011,02,22,13,29,5.90
2011,02,22,13,30,5.90
2011,02,22,13,31,5.90
2011,02,22,13,32,5.90
2011,02,22,13,33,5.90
2011,02,22,13,34,5.90
2011,02,22,13,35,5.90
2011,02,22,13,36,5.90
2011,02,22,13,37,6.00
2011,02,22,13,38,6.00
2011,02,22,13,39,6.00
2011,02,22,13,40,6.00
2011,02,22,13,41,6.00
2011,02,22,13,42,6.00
2011,02,22,13,43,5.90
2011,02,22,13,44,5.90
2011,02,22,13,45,5.90
2011,02,22,13,46,5.90
2011,02,22,13,47,5.90
2011,02,22,13,48,5.90
2011,02,22,13,49,5.90
2011,02,22,13,50,5.90
2011,02,22,13,51,5.90
2011,02,22,13,52,5.90
2011,02,22,13,53,5.90
2011,02,22,13,54,5.90
2011,02,22,13,55,5.90
2011,02,22,13,56,5.90
2011,02,22,13,57,5.90
2011,02,22,13,58,5.90
2011,02,22,13,59,5.90
2011,02,22,14,00,6.00
2011,02,22,14,01,6.00
2011,02,22,14,02,6.00
2011,02,22,14,03,6.00
2011,02,22,14,04,6.00
2011,02,22,14,05,6.10
2011,02,22,14,06,6.10
2011,02,22,14,07,6.10
2011,02,22,14,08,6.00
2011,02,22,14,09,6.00
2011,02,22,14,10,6.00
2011,02,22,14,11,6.00
2011,02,22,14,12,6.00
2011,02,22,14,13,6.00
2011,02,22,14,14,6.00
2011,02,22,14,15,6.00
2011,02,22,14,16,6.00
2011,02,22,14,17,6.00
2011,02,22,14,18,6.00
2011,02,22,14,19,6.00
2011,02,22,14,20,6.10
2011,02,22,14,21,6.00
2011,02,22,14,22,6.00
2011,02,22,14,23,6.00
2011,02,22,14,24,6.00
2011,02,22,14,25,6.00
2011,02,22,14,26,6.00
2011,02,22,14,27,6.00
2011,02,22,14,28,5.90
2011,02,22,14,29,5.90
2011,02,22,14,30,5.90
2011,02,22,14,31,5.90
2011,02,22,14,32,5.90
2011,02,22,14,33,5.90
2011,02,22,14,34,5.90
2011,02,22,14,35,5.90
2011,02,22,14,36,5.90
2011,02,22,14,37,5.90
2011,02,22,14,38,5.90
2011,02,22,14,39,5.90
2011,02,22,14,40,5.90
2011,02,22,14,41,5.90
2011,02,22,14,42,5.90
2011,02,22,14,43,5.90
2011,02,22,14,44,5.90
2011,02,22,14,45,5.90
2011,02,22,14,46,5.90
2011,02,22,14,47,5.90
2011,02,22,14,48,5.80
2011,02,22,14,49,5.80
2011,02,22,14,50,5.70
2011,02,22,14,51,5.70
2011,02,22,14,52,5.80
2011,02,22,14,53,5.80
2011,02,22,14,54,5.80
2011,02,22,14,55,5.90
2011,02,22,14,56,5.90
2011,02,22,14,57,5.90
2011,02,22,14,58,5.90
2011,02,22,14,59,6.00
2011,02,22,15,00,6.00
2011,02,22,15,01,6.00
2011,02,22,15,02,5.90
2011,02,22,15,03,5.90
2011,02,22,15,04,5.90
2011,02,22,15,05,5.90
2011,02,22,15,06,5.90
2011,02,22,15,07,5.90
2011,02,22,15,08,5.90
2011,02,22,15,09,5.90
2011,02,22,15,10,5.90
2011,02,22,15,11,5.90
2011,02,22,15,12,5.90
2011,02,22,15,13,5.90
2011,02,22,15,14,5.90
2011,02,22,15,15,5.90
2011,02,22,15,16,5.90
2011,02,22,15,17,5.90
2011,02,22,15,18,5.90
2011,02,22,15,19,5.90
2011,02,22,15,20,5.90
2011,02,22,15,21,5.90
2011,02,22,15,22,5.90
2011,02,22,15,23,5.90
2011,02,22,15,24,5.80
2011,02,22,15,25,5.80
2011,02,22,15,26,5.80
2011,02,22,15,27,5.80
2011,02,22,15,28,5.80
2011,02,22,15,29,5.80
2011,02,22,15,30,5.80
2011,02,22,15,31,5.80
2011,02,22,15,32,5.80
2011,02,22,15,33,5.80
2011,02,22,15,34,5.80
2011,02,22,15,35,5.80
2011,02,22,15,36,5.80
2011,02,22,15,37,5.80
2011,02,22,15,38,5.80
2011,02,22,15,39,5.80
2011,02,22,15,40,5.80
2011,02,22,15,41,5.80
2011,02,22,15,42,5.80
2011,02,22,15,43,5.80
2011,02,22,15,44,5.80
2011,02,22,15,45,5.80
2011,02,22,15,46,5.80
2011,02,22,15,47,5.80
2011,02,22,15,48,5.70
2011,02,22,15,49,5.70
2011,02,22,15,50,5.60
2011,02,22,15,51,5.60
2011,02,22,15,52,5.50
2011,02,22,15,53,5.50
2011,02,22,15,54,5.40
2011,02,22,15,55,5.40
2011,02,22,15,56,5.40
2011,02,22,15,57,5.30
2011,02,22,15,58,5.30
2011,02,22,15,59,5.40
2011,02,22,16,00,5.40
2011,02,22,16,01,5.40
2011,02,22,16,02,5.40
2011,02,22,16,03,5.40
2011,02,22,16,04,5.40
2011,02,22,16,05,5.40
2011,02,22,16,06,5.40
2011,02,22,16,07,5.40
2011,02,22,16,08,5.30
2011,02,22,16,09,5.30
2011,02,22,16,10,5.20
2011,02,22,16,11,5.20
2011,02,22,16,12,5.20
2011,02,22,16,13,5.20
2011,02,22,16,14,5.10
2011,02,22,16,15,5.10
2011,02,22,16,16,5.10
2011,02,22,16,17,5.00
2011,02,22,16,18,5.00
2011,02,22,16,19,4.90
2011,02,22,16,20,4.90
2011,02,22,16,21,4.80
2011,02,22,16,22,4.80
2011,02,22,16,23,4.80
2011,02,22,16,24,4.70
2011,02,22,16,25,4.70
2011,02,22,16,26,4.70
2011,02,22,16,27,4.60
2011,02,22,16,28,4.60
2011,02,22,16,29,4.60
2011,02,22,16,30,4.50
2011,02,22,16,31,4.50
2011,02,22,16,32,4.40
2011,02,22,16,33,4.40
2011,02,22,16,34,4.40
2011,02,22,16,35,4.40
2011,02,22,16,36,4.30
2011,02,22,16,37,4.30
2011,02,22,16,38,4.30
2011,02,22,16,39,4.30
2011,02,22,16,40,4.30
2011,02,22,16,41,4.30
2011,02,22,16,42,4.30
2011,02,22,16,43,4.30
2011,02,22,16,44,4.30
2011,02,22,16,45,4.30
2011,02,22,16,46,4.30
2011,02,22,16,47,4.30
2011,02,22,16,48,4.30
2011,02,22,16,49,4.30
2011,02,22,16,50,4.30
2011,02,22,16,51,4.30
2011,02,22,16,52,4.30
2011,02,22,16,53,4.20
2011,02,22,16,54,4.20
2011,02,22,16,55,4.20
2011,02,22,16,56,4.20
2011,02,22,16,57,4.20
2011,02,22,16,58,4.20
2011,02,22,16,59,4.10
2011,02,22,17,00,4.10
2011,02,22,17,01,4.10
2011,02,22,17,02,4.10
2011,02,22,17,03,4.10
2011,02,22,17,04,4.10
2011,02,22,17,05,4.00
2011,02,22,17,06,4.00
2011,02,22,17,07,4.00
2011,02,22,17,08,3.90
2011,02,22,17,09,3.90
2011,02,22,17,10,3.90
2011,02,22,17,11,3.90
2011,02,22,17,12,3.90
2011,02,22,17,13,3.80
2011,02,22,17,14,3.80
2011,02,22,17,15,3.80
2011,02,22,17,16,3.80
2011,02,22,17,17,3.80
2011,02,22,17,18,3.80
2011,02,22,17,19,3.80
2011,02,22,17,20,3.80
2011,02,22,17,21,3.70
2011,02,22,17,22,3.70
2011,02,22,17,23,3.70
2011,02,22,17,24,3.70
2011,02,22,17,25,3.70
2011,02,22,17,26,3.70
2011,02,22,17,27,3.70
2011,02,22,17,28,3.70
2011,02,22,17,29,3.70
2011,02,22,17,30,3.70
2011,02,22,17,31,3.70
2011,02,22,17,32,3.70
2011,02,22,17,33,3.70
2011,02,22,17,34,3.60
2011,02,22,17,35,3.60
2011,02,22,17,36,3.60
2011,02,22,17,37,3.60
2011,02,22,17,38,3.60
2011,02,22,17,39,3.60
2011,02,22,17,40,3.60
2011,02,22,17,41,3.60
2011,02,22,17,42,3.60
2011,02,22,17,43,3.60
2011,02,22,17,44,3.60
2011,02,22,17,45,3.60
2011,02,22,17,46,3.60
2011,02,22,17,47,3.60
2011,02,22,17,48,3.60
2011,02,22,17,49,3.50
2011,02,22,17,50,3.50
2011,02,22,17,51,3.50
2011,02,22,17,52,3.50
2011,02,22,17,53,3.50
2011,02,22,17,54,3.50
2011,02,22,17,55,3.40
2011,02,22,17,56,3.40
2011,02,22,17,57,3.40
2011,02,22,17,58,3.40
2011,02,22,17,59,3.40
2011,02,22,18,00,3.40
2011,02,22,18,01,3.40
2011,02,22,18,02,3.40
2011,02,22,18,03,3.40
2011,02,22,18,04,3.40
2011,02,22,18,05,3.40
2011,02,22,18,06,3.40